owner,sensor,date,latitude,longitude,vertical_datum,sea_water_practical_salinity,qcFlag 
LUMCON,ioos:station:LUMCON:101:1,2019-03-01T00:30:00Z,29.2533,-90.6633,1.975,7.84,1111122 
LUMCON,ioos:station:LUMCON:101:1,2019-03-01T00:45:00Z,29.2533,-90.6633,1.967,7.7,1111122 
LUMCON,ioos:station:LUMCON:101:1,2019-03-01T01:00:00Z,29.2533,-90.6633,1.967,7.7,1111122 
LUMCON,ioos:station:LUMCON:101:1,2019-03-01T01:15:00Z,29.2533,-90.6633,1.966,7.75,1111122 
LUMCON,ioos:station:LUMCON:101:1,2019-03-01T01:30:00Z,29.2533,-90.6633,1.964,7.75,1111122 
LUMCON,ioos:station:LUMCON:101:1,2019-03-01T01:45:00Z,29.2533,-90.6633,1.958,7.68,1111122 
LUMCON,ioos:station:LUMCON:101:1,2019-03-01T02:00:00Z,29.2533,-90.6633,1.956,7.67,1111122 
LUMCON,ioos:station:LUMCON:101:1,2019-03-01T02:15:00Z,29.2533,-90.6633,1.954,7.71,1111122 
LUMCON,ioos:station:LUMCON:101:1,2019-03-01T02:30:00Z,29.2533,-90.6633,1.954,7.73,1111122 
LUMCON,ioos:station:LUMCON:101:1,2019-03-01T02:45:00Z,29.2533,-90.6633,1.951,7.72,1111122 
LUMCON,ioos:station:LUMCON:101:1,2019-03-01T03:00:00Z,29.2533,-90.6633,1.942,7.7,1111122 
LUMCON,ioos:station:LUMCON:101:1,2019-03-01T03:15:00Z,29.2533,-90.6633,1.936,7.64,1111122 
LUMCON,ioos:station:LUMCON:101:1,2019-03-01T03:30:00Z,29.2533,-90.6633,1.93,7.66,1111122 
LUMCON,ioos:station:LUMCON:101:1,2019-03-01T03:45:00Z,29.2533,-90.6633,1.921,7.64,1111122 
LUMCON,ioos:station:LUMCON:101:1,2019-03-01T04:00:00Z,29.2533,-90.6633,1.904,7.58,1111122 
LUMCON,ioos:station:LUMCON:101:1,2019-03-01T04:15:00Z,29.2533,-90.6633,1.908,7.54,1111122 
LUMCON,ioos:station:LUMCON:101:1,2019-03-01T04:30:00Z,29.2533,-90.6633,1.9,7.51,1111122 
LUMCON,ioos:station:LUMCON:101:1,2019-03-01T04:45:00Z,29.2533,-90.6633,1.904,7.48,1111122 
LUMCON,ioos:station:LUMCON:101:1,2019-03-01T05:00:00Z,29.2533,-90.6633,1.896,7.45,1111122 
LUMCON,ioos:station:LUMCON:101:1,2019-03-01T05:15:00Z,29.2533,-90.6633,1.885,7.41,1111122 
LUMCON,ioos:station:LUMCON:101:1,2019-03-01T05:30:00Z,29.2533,-90.6633,1.871,7.34,1111122 
LUMCON,ioos:station:LUMCON:101:1,2019-03-01T05:45:00Z,29.2533,-90.6633,1.865,7.28,1111122 
LUMCON,ioos:station:LUMCON:101:1,2019-03-01T06:00:00Z,29.2533,-90.6633,1.854,7.21,1111122 
LUMCON,ioos:station:LUMCON:101:1,2019-03-01T06:15:00Z,29.2533,-90.6633,1.843,7.21,1111122 
LUMCON,ioos:station:LUMCON:101:1,2019-03-01T06:30:00Z,29.2533,-90.6633,1.835,7.28,1111122 
LUMCON,ioos:station:LUMCON:101:1,2019-03-01T06:45:00Z,29.2533,-90.6633,1.814,7.25,1111122 
LUMCON,ioos:station:LUMCON:101:1,2019-03-01T07:00:00Z,29.2533,-90.6633,1.805,7.24,1111122 
LUMCON,ioos:station:LUMCON:101:1,2019-03-01T07:15:00Z,29.2533,-90.6633,1.802,7.22,1111122 
LUMCON,ioos:station:LUMCON:101:1,2019-03-01T07:30:00Z,29.2533,-90.6633,1.791,7.19,1111122 
LUMCON,ioos:station:LUMCON:101:1,2019-03-01T07:45:00Z,29.2533,-90.6633,1.784,7.19,1111122 
LUMCON,ioos:station:LUMCON:101:1,2019-03-01T08:00:00Z,29.2533,-90.6633,1.77,7.17,1111122 
LUMCON,ioos:station:LUMCON:101:1,2019-03-01T08:15:00Z,29.2533,-90.6633,1.754,7.16,1111122 
LUMCON,ioos:station:LUMCON:101:1,2019-03-01T08:30:00Z,29.2533,-90.6633,1.75,7.22,1111122 
LUMCON,ioos:station:LUMCON:101:1,2019-03-01T08:45:00Z,29.2533,-90.6633,1.741,7.15,1111122 
LUMCON,ioos:station:LUMCON:101:1,2019-03-01T09:00:00Z,29.2533,-90.6633,1.731,7.14,1111122 
LUMCON,ioos:station:LUMCON:101:1,2019-03-01T09:15:00Z,29.2533,-90.6633,1.718,7.06,1111122 
LUMCON,ioos:station:LUMCON:101:1,2019-03-01T09:30:00Z,29.2533,-90.6633,1.714,7.04,1111122 
LUMCON,ioos:station:LUMCON:101:1,2019-03-01T09:45:00Z,29.2533,-90.6633,1.71,7.07,1111122 
LUMCON,ioos:station:LUMCON:101:1,2019-03-01T10:00:00Z,29.2533,-90.6633,1.701,7.11,1111122 
LUMCON,ioos:station:LUMCON:101:1,2019-03-01T10:15:00Z,29.2533,-90.6633,1.696,7.07,1111122 
LUMCON,ioos:station:LUMCON:101:1,2019-03-01T10:30:00Z,29.2533,-90.6633,1.683,7.12,1111122 
LUMCON,ioos:station:LUMCON:101:1,2019-03-01T10:45:00Z,29.2533,-90.6633,1.671,7.07,1111122 
LUMCON,ioos:station:LUMCON:101:1,2019-03-01T11:00:00Z,29.2533,-90.6633,1.682,6.98,1111122 
LUMCON,ioos:station:LUMCON:101:1,2019-03-01T11:15:00Z,29.2533,-90.6633,1.694,6.93,1111122 
LUMCON,ioos:station:LUMCON:101:1,2019-03-01T11:30:00Z,29.2533,-90.6633,1.673,6.88,1111122 
LUMCON,ioos:station:LUMCON:101:1,2019-03-01T11:45:00Z,29.2533,-90.6633,1.648,6.77,1111122 
LUMCON,ioos:station:LUMCON:101:1,2019-03-01T12:00:00Z,29.2533,-90.6633,1.634,6.66,1111122 
LUMCON,ioos:station:LUMCON:101:1,2019-03-01T12:15:00Z,29.2533,-90.6633,1.623,6.64,1111122 
LUMCON,ioos:station:LUMCON:101:1,2019-03-01T12:30:00Z,29.2533,-90.6633,1.633,6.57,1111122 
LUMCON,ioos:station:LUMCON:101:1,2019-03-01T12:45:00Z,29.2533,-90.6633,1.664,6.57,1111122 
LUMCON,ioos:station:LUMCON:101:1,2019-03-01T13:00:00Z,29.2533,-90.6633,1.666,6.58,1111122 
LUMCON,ioos:station:LUMCON:101:1,2019-03-01T13:15:00Z,29.2533,-90.6633,1.648,6.57,1111122 
LUMCON,ioos:station:LUMCON:101:1,2019-03-01T13:30:00Z,29.2533,-90.6633,1.659,6.56,1111122 
LUMCON,ioos:station:LUMCON:101:1,2019-03-01T13:45:00Z,29.2533,-90.6633,1.643,6.55,1111122 
LUMCON,ioos:station:LUMCON:101:1,2019-03-01T14:00:00Z,29.2533,-90.6633,1.664,6.53,1111122 
LUMCON,ioos:station:LUMCON:101:1,2019-03-01T14:15:00Z,29.2533,-90.6633,1.672,6.55,1111122 
LUMCON,ioos:station:LUMCON:101:1,2019-03-01T14:30:00Z,29.2533,-90.6633,1.681,6.55,1111122 
LUMCON,ioos:station:LUMCON:101:1,2019-03-01T14:45:00Z,29.2533,-90.6633,1.715,6.6,1111122 
LUMCON,ioos:station:LUMCON:101:1,2019-03-04T17:45:00Z,29.2533,-90.6633,1.595,5.0,1111122 
LUMCON,ioos:station:LUMCON:101:1,2019-03-04T18:00:00Z,29.2533,-90.6633,1.606,4.79,1111122 
LUMCON,ioos:station:LUMCON:101:1,2019-03-04T18:15:00Z,29.2533,-90.6633,1.614,4.56,1111122 
LUMCON,ioos:station:LUMCON:101:1,2019-03-04T18:30:00Z,29.2533,-90.6633,1.628,4.19,1111122 
LUMCON,ioos:station:LUMCON:101:1,2019-03-04T18:45:00Z,29.2533,-90.6633,1.638,3.79,1111122 
LUMCON,ioos:station:LUMCON:101:1,2019-03-04T19:00:00Z,29.2533,-90.6633,1.645,3.26,1111122 
LUMCON,ioos:station:LUMCON:101:1,2019-03-04T19:15:00Z,29.2533,-90.6633,1.661,2.77,1111122 
LUMCON,ioos:station:LUMCON:101:1,2019-03-04T19:30:00Z,29.2533,-90.6633,1.683,2.45,1111122 
LUMCON,ioos:station:LUMCON:101:1,2019-03-04T19:45:00Z,29.2533,-90.6633,1.707,2.4,1111122 
LUMCON,ioos:station:LUMCON:101:1,2019-03-04T20:00:00Z,29.2533,-90.6633,1.722,1.92,1111122 
LUMCON,ioos:station:LUMCON:101:1,2019-03-04T21:30:00Z,29.2533,-90.6633,1.758,1.8,1111122 
LUMCON,ioos:station:LUMCON:101:1,2019-03-04T21:45:00Z,29.2533,-90.6633,1.762,1.76,1111122 
LUMCON,ioos:station:LUMCON:101:1,2019-03-04T22:00:00Z,29.2533,-90.6633,1.767,1.76,1111122 
LUMCON,ioos:station:LUMCON:101:1,2019-03-04T22:15:00Z,29.2533,-90.6633,1.779,1.71,1111122 
LUMCON,ioos:station:LUMCON:101:1,2019-03-04T22:30:00Z,29.2533,-90.6633,1.793,1.67,1111122 
LUMCON,ioos:station:LUMCON:101:1,2019-03-04T22:45:00Z,29.2533,-90.6633,1.799,1.67,1111122 
LUMCON,ioos:station:LUMCON:101:1,2019-03-04T23:00:00Z,29.2533,-90.6633,1.798,1.72,1111122 
LUMCON,ioos:station:LUMCON:101:1,2019-03-04T23:15:00Z,29.2533,-90.6633,1.808,1.66,1111122 
LUMCON,ioos:station:LUMCON:101:1,2019-03-04T23:30:00Z,29.2533,-90.6633,1.809,1.72,1111122 
LUMCON,ioos:station:LUMCON:101:1,2019-03-04T23:45:00Z,29.2533,-90.6633,1.806,1.73,1111122 
LUMCON,ioos:station:LUMCON:101:1,2019-03-05T00:00:00Z,29.2533,-90.6633,1.814,1.71,1111122 
LUMCON,ioos:station:LUMCON:101:1,2019-03-05T00:15:00Z,29.2533,-90.6633,1.806,1.77,1111122 
LUMCON,ioos:station:LUMCON:101:1,2019-03-05T00:30:00Z,29.2533,-90.6633,1.818,1.82,1111122 
LUMCON,ioos:station:LUMCON:101:1,2019-03-05T00:45:00Z,29.2533,-90.6633,1.818,1.93,1111122 
LUMCON,ioos:station:LUMCON:101:1,2019-03-05T01:00:00Z,29.2533,-90.6633,1.833,1.95,1111122 
LUMCON,ioos:station:LUMCON:101:1,2019-03-05T01:15:00Z,29.2533,-90.6633,1.83,1.84,1111122 
LUMCON,ioos:station:LUMCON:101:1,2019-03-05T01:30:00Z,29.2533,-90.6633,1.838,1.86,1111122 
LUMCON,ioos:station:LUMCON:101:1,2019-03-05T01:45:00Z,29.2533,-90.6633,1.848,1.82,1111122 
LUMCON,ioos:station:LUMCON:101:1,2019-03-05T02:00:00Z,29.2533,-90.6633,1.846,1.87,1111122 
LUMCON,ioos:station:LUMCON:101:1,2019-03-05T02:15:00Z,29.2533,-90.6633,1.843,1.87,1111122 
LUMCON,ioos:station:LUMCON:101:1,2019-03-05T02:30:00Z,29.2533,-90.6633,1.83,1.87,1111122 
LUMCON,ioos:station:LUMCON:101:1,2019-03-05T02:45:00Z,29.2533,-90.6633,1.815,1.89,1111122 
LUMCON,ioos:station:LUMCON:101:1,2019-03-05T03:00:00Z,29.2533,-90.6633,1.806,1.87,1111122 
LUMCON,ioos:station:LUMCON:101:1,2019-03-05T03:15:00Z,29.2533,-90.6633,1.815,1.87,1111122 
LUMCON,ioos:station:LUMCON:101:1,2019-03-05T03:30:00Z,29.2533,-90.6633,1.817,1.83,1111122 
LUMCON,ioos:station:LUMCON:101:1,2019-03-05T03:45:00Z,29.2533,-90.6633,1.836,1.81,1111122 
LUMCON,ioos:station:LUMCON:101:1,2019-03-05T04:00:00Z,29.2533,-90.6633,1.854,1.82,1111122 
LUMCON,ioos:station:LUMCON:101:1,2019-03-05T04:15:00Z,29.2533,-90.6633,1.851,1.84,1111122 
LUMCON,ioos:station:LUMCON:101:1,2019-03-05T04:30:00Z,29.2533,-90.6633,1.845,1.83,1111122 
LUMCON,ioos:station:LUMCON:101:1,2019-03-05T04:45:00Z,29.2533,-90.6633,1.824,1.82,1111122 
LUMCON,ioos:station:LUMCON:101:1,2019-03-05T05:00:00Z,29.2533,-90.6633,1.802,1.77,1111122 
LUMCON,ioos:station:LUMCON:101:1,2019-03-05T05:15:00Z,29.2533,-90.6633,1.805,1.73,1111122 
LUMCON,ioos:station:LUMCON:101:1,2019-03-05T05:30:00Z,29.2533,-90.6633,1.81,1.71,1111122 
LUMCON,ioos:station:LUMCON:101:1,2019-03-05T05:45:00Z,29.2533,-90.6633,1.805,1.69,1111122 
LUMCON,ioos:station:LUMCON:101:1,2019-03-05T06:00:00Z,29.2533,-90.6633,1.803,1.71,1111122 
LUMCON,ioos:station:LUMCON:101:1,2019-03-06T10:45:00Z,29.2533,-90.6633,1.579,2.0,1111122 
LUMCON,ioos:station:LUMCON:101:1,2019-03-06T11:00:00Z,29.2533,-90.6633,1.567,2.09,1111122 
LUMCON,ioos:station:LUMCON:101:1,2019-03-06T11:15:00Z,29.2533,-90.6633,1.559,2.18,1111122 
LUMCON,ioos:station:LUMCON:101:1,2019-03-06T11:30:00Z,29.2533,-90.6633,1.55,2.3,1111122 
LUMCON,ioos:station:LUMCON:101:1,2019-03-06T11:45:00Z,29.2533,-90.6633,1.539,2.43,1111122 
LUMCON,ioos:station:LUMCON:101:1,2019-03-06T12:00:00Z,29.2533,-90.6633,1.534,2.56,1111122 
LUMCON,ioos:station:LUMCON:101:1,2019-03-06T12:15:00Z,29.2533,-90.6633,1.528,2.72,1111122 
LUMCON,ioos:station:LUMCON:101:1,2019-03-06T12:30:00Z,29.2533,-90.6633,1.526,2.86,1111122 
LUMCON,ioos:station:LUMCON:101:1,2019-03-06T12:45:00Z,29.2533,-90.6633,1.525,3.0,1111122 
LUMCON,ioos:station:LUMCON:101:1,2019-03-06T13:00:00Z,29.2533,-90.6633,1.527,3.13,1111122 
LUMCON,ioos:station:LUMCON:101:1,2019-03-06T13:15:00Z,29.2533,-90.6633,1.516,3.28,1111122 
LUMCON,ioos:station:LUMCON:101:1,2019-03-06T13:30:00Z,29.2533,-90.6633,1.506,3.45,1111122 
LUMCON,ioos:station:LUMCON:101:1,2019-03-06T13:45:00Z,29.2533,-90.6633,1.501,3.6,1111122 
LUMCON,ioos:station:LUMCON:101:1,2019-03-06T14:00:00Z,29.2533,-90.6633,1.504,3.69,1111122 
LUMCON,ioos:station:LUMCON:101:1,2019-03-06T14:15:00Z,29.2533,-90.6633,1.5,3.75,1111122 
LUMCON,ioos:station:LUMCON:101:1,2019-03-06T14:30:00Z,29.2533,-90.6633,1.502,3.8,1111122 
LUMCON,ioos:station:LUMCON:101:1,2019-03-06T14:45:00Z,29.2533,-90.6633,1.504,3.85,1111122 
LUMCON,ioos:station:LUMCON:101:1,2019-03-06T15:00:00Z,29.2533,-90.6633,1.497,3.89,1111122 
LUMCON,ioos:station:LUMCON:101:1,2019-03-06T15:15:00Z,29.2533,-90.6633,1.496,3.98,1111122 
LUMCON,ioos:station:LUMCON:101:1,2019-03-06T15:30:00Z,29.2533,-90.6633,1.494,4.04,1111122 
LUMCON,ioos:station:LUMCON:101:1,2019-03-06T15:45:00Z,29.2533,-90.6633,1.502,4.08,1111122 
LUMCON,ioos:station:LUMCON:101:1,2019-03-06T16:00:00Z,29.2533,-90.6633,1.509,4.0,1111122 
LUMCON,ioos:station:LUMCON:101:1,2019-03-06T16:15:00Z,29.2533,-90.6633,1.521,3.91,1111122 
LUMCON,ioos:station:LUMCON:101:1,2019-03-06T16:30:00Z,29.2533,-90.6633,1.53,3.45,1111122 
LUMCON,ioos:station:LUMCON:101:1,2019-03-06T16:45:00Z,29.2533,-90.6633,1.533,3.32,1111122 
LUMCON,ioos:station:LUMCON:101:1,2019-03-06T17:00:00Z,29.2533,-90.6633,1.531,3.24,1111122 
LUMCON,ioos:station:LUMCON:101:1,2019-03-06T17:15:00Z,29.2533,-90.6633,1.525,3.14,1111122 
LUMCON,ioos:station:LUMCON:101:1,2019-03-06T17:30:00Z,29.2533,-90.6633,1.536,3.0,1111122 
LUMCON,ioos:station:LUMCON:101:1,2019-03-06T17:45:00Z,29.2533,-90.6633,1.545,2.91,1111122 
LUMCON,ioos:station:LUMCON:101:1,2019-03-06T18:00:00Z,29.2533,-90.6633,1.556,2.88,1111122 
LUMCON,ioos:station:LUMCON:101:1,2019-03-06T18:15:00Z,29.2533,-90.6633,1.565,2.85,1111122 
LUMCON,ioos:station:LUMCON:101:1,2019-03-06T18:30:00Z,29.2533,-90.6633,1.576,2.82,1111122 
LUMCON,ioos:station:LUMCON:101:1,2019-03-06T18:45:00Z,29.2533,-90.6633,1.587,2.71,1111122 
LUMCON,ioos:station:LUMCON:101:1,2019-03-06T19:00:00Z,29.2533,-90.6633,1.595,2.69,1111122 
LUMCON,ioos:station:LUMCON:101:1,2019-03-06T19:15:00Z,29.2533,-90.6633,1.614,2.6,1111122 
LUMCON,ioos:station:LUMCON:101:1,2019-03-06T19:30:00Z,29.2533,-90.6633,1.623,2.53,1111122 
LUMCON,ioos:station:LUMCON:101:1,2019-03-06T19:45:00Z,29.2533,-90.6633,1.633,2.51,1111122 
LUMCON,ioos:station:LUMCON:101:1,2019-03-06T20:00:00Z,29.2533,-90.6633,1.648,2.55,1111122 
LUMCON,ioos:station:LUMCON:101:1,2019-03-06T20:15:00Z,29.2533,-90.6633,1.65,2.63,1111122 
LUMCON,ioos:station:LUMCON:101:1,2019-03-06T20:30:00Z,29.2533,-90.6633,1.661,2.69,1111122 
LUMCON,ioos:station:LUMCON:101:1,2019-03-06T20:45:00Z,29.2533,-90.6633,1.67,2.75,1111122 
LUMCON,ioos:station:LUMCON:101:1,2019-03-06T21:00:00Z,29.2533,-90.6633,1.669,2.83,1111122 
LUMCON,ioos:station:LUMCON:101:1,2019-03-06T21:15:00Z,29.2533,-90.6633,1.684,2.81,1111122 
LUMCON,ioos:station:LUMCON:101:1,2019-03-06T21:30:00Z,29.2533,-90.6633,1.695,2.84,1111122 
LUMCON,ioos:station:LUMCON:101:1,2019-03-06T21:45:00Z,29.2533,-90.6633,1.698,2.83,1111122 
LUMCON,ioos:station:LUMCON:101:1,2019-03-06T22:00:00Z,29.2533,-90.6633,1.711,2.83,1111122 
LUMCON,ioos:station:LUMCON:101:1,2019-03-06T22:15:00Z,29.2533,-90.6633,1.713,2.85,1111122 
LUMCON,ioos:station:LUMCON:101:1,2019-03-06T22:30:00Z,29.2533,-90.6633,1.722,2.85,1111122 
LUMCON,ioos:station:LUMCON:101:1,2019-03-06T22:45:00Z,29.2533,-90.6633,1.723,2.85,1111122 
LUMCON,ioos:station:LUMCON:101:1,2019-03-06T23:00:00Z,29.2533,-90.6633,1.732,2.84,1111122 
LUMCON,ioos:station:LUMCON:101:1,2019-03-06T23:15:00Z,29.2533,-90.6633,1.74,2.84,1111122 
LUMCON,ioos:station:LUMCON:101:1,2019-03-06T23:30:00Z,29.2533,-90.6633,1.753,2.84,1111122 
LUMCON,ioos:station:LUMCON:101:1,2019-03-06T23:45:00Z,29.2533,-90.6633,1.77,2.84,1111122 
LUMCON,ioos:station:LUMCON:101:1,2019-03-07T00:00:00Z,29.2533,-90.6633,1.776,2.85,1111122 
LUMCON,ioos:station:LUMCON:101:1,2019-03-07T00:15:00Z,29.2533,-90.6633,1.782,2.85,1111122 
LUMCON,ioos:station:LUMCON:101:1,2019-03-07T00:30:00Z,29.2533,-90.6633,1.791,2.87,1111122 
LUMCON,ioos:station:LUMCON:101:1,2019-03-07T00:45:00Z,29.2533,-90.6633,1.796,2.98,1111122 
LUMCON,ioos:station:LUMCON:101:1,2019-03-07T01:00:00Z,29.2533,-90.6633,1.803,3.14,1111122 
LUMCON,ioos:station:LUMCON:101:1,2019-03-07T01:15:00Z,29.2533,-90.6633,1.801,3.44,1111122 
LUMCON,ioos:station:LUMCON:101:1,2019-03-07T01:30:00Z,29.2533,-90.6633,1.807,3.4,1111122 
LUMCON,ioos:station:LUMCON:101:1,2019-03-07T01:45:00Z,29.2533,-90.6633,1.811,3.62,1111122 
LUMCON,ioos:station:LUMCON:101:1,2019-03-07T02:00:00Z,29.2533,-90.6633,1.812,4.18,1111122 
LUMCON,ioos:station:LUMCON:101:1,2019-03-07T02:15:00Z,29.2533,-90.6633,1.82,4.76,1111122 
LUMCON,ioos:station:LUMCON:101:1,2019-03-07T02:30:00Z,29.2533,-90.6633,1.831,4.96,1111122 
LUMCON,ioos:station:LUMCON:101:1,2019-03-07T02:45:00Z,29.2533,-90.6633,1.838,5.08,1111122 
LUMCON,ioos:station:LUMCON:101:1,2019-03-07T03:00:00Z,29.2533,-90.6633,1.84,5.28,1111122 
LUMCON,ioos:station:LUMCON:101:1,2019-03-07T03:15:00Z,29.2533,-90.6633,1.844,5.49,1111122 
LUMCON,ioos:station:LUMCON:101:1,2019-03-07T03:30:00Z,29.2533,-90.6633,1.851,5.71,1111122 
LUMCON,ioos:station:LUMCON:101:1,2019-03-07T03:45:00Z,29.2533,-90.6633,1.853,5.84,1111122 
LUMCON,ioos:station:LUMCON:101:1,2019-03-07T04:00:00Z,29.2533,-90.6633,1.854,6.15,1111122 
LUMCON,ioos:station:LUMCON:101:1,2019-03-07T04:15:00Z,29.2533,-90.6633,1.854,6.28,1111122 
LUMCON,ioos:station:LUMCON:101:1,2019-03-07T04:30:00Z,29.2533,-90.6633,1.861,6.52,1111122 
LUMCON,ioos:station:LUMCON:101:1,2019-03-07T04:45:00Z,29.2533,-90.6633,1.867,6.85,1111122 
LUMCON,ioos:station:LUMCON:101:1,2019-03-07T05:00:00Z,29.2533,-90.6633,1.873,7.04,1111122 
LUMCON,ioos:station:LUMCON:101:1,2019-03-07T05:15:00Z,29.2533,-90.6633,1.873,7.07,1111122 
LUMCON,ioos:station:LUMCON:101:1,2019-03-07T05:30:00Z,29.2533,-90.6633,1.878,7.25,1111122 
LUMCON,ioos:station:LUMCON:101:1,2019-03-07T05:45:00Z,29.2533,-90.6633,1.876,7.43,1111122 
LUMCON,ioos:station:LUMCON:101:1,2019-03-07T06:00:00Z,29.2533,-90.6633,1.886,7.59,1111122 
LUMCON,ioos:station:LUMCON:101:1,2019-03-07T06:15:00Z,29.2533,-90.6633,1.89,7.75,1111122 
LUMCON,ioos:station:LUMCON:101:1,2019-03-07T06:30:00Z,29.2533,-90.6633,1.892,7.74,1111122 
LUMCON,ioos:station:LUMCON:101:1,2019-03-07T06:45:00Z,29.2533,-90.6633,1.893,7.93,1111122 
LUMCON,ioos:station:LUMCON:101:1,2019-03-07T07:00:00Z,29.2533,-90.6633,1.894,8.05,1111122 
LUMCON,ioos:station:LUMCON:101:1,2019-03-07T07:15:00Z,29.2533,-90.6633,1.902,8.28,1111122 
LUMCON,ioos:station:LUMCON:101:1,2019-03-07T07:30:00Z,29.2533,-90.6633,1.901,8.41,1111122 
LUMCON,ioos:station:LUMCON:101:1,2019-03-07T07:45:00Z,29.2533,-90.6633,1.899,8.49,1111122 
LUMCON,ioos:station:LUMCON:101:1,2019-03-07T08:00:00Z,29.2533,-90.6633,1.904,8.54,1111122 
LUMCON,ioos:station:LUMCON:101:1,2019-03-07T08:15:00Z,29.2533,-90.6633,1.901,8.59,1111122 
LUMCON,ioos:station:LUMCON:101:1,2019-03-07T08:30:00Z,29.2533,-90.6633,1.895,8.51,1111122 
LUMCON,ioos:station:LUMCON:101:1,2019-03-07T08:45:00Z,29.2533,-90.6633,1.888,8.26,1111122 
LUMCON,ioos:station:LUMCON:101:1,2019-03-07T09:00:00Z,29.2533,-90.6633,1.879,7.74,1111122 
LUMCON,ioos:station:LUMCON:101:1,2019-03-07T09:15:00Z,29.2533,-90.6633,1.867,7.49,1111122 
LUMCON,ioos:station:LUMCON:101:1,2019-03-07T09:30:00Z,29.2533,-90.6633,1.853,7.05,1111122 
LUMCON,ioos:station:LUMCON:101:1,2019-03-07T09:45:00Z,29.2533,-90.6633,1.846,6.49,1111122 
LUMCON,ioos:station:LUMCON:101:1,2019-03-07T10:00:00Z,29.2533,-90.6633,1.835,6.41,1111122 
LUMCON,ioos:station:LUMCON:101:1,2019-03-07T10:15:00Z,29.2533,-90.6633,1.827,6.49,1111122 
LUMCON,ioos:station:LUMCON:101:1,2019-03-07T10:30:00Z,29.2533,-90.6633,1.81,6.38,1111122 
LUMCON,ioos:station:LUMCON:101:1,2019-03-07T10:45:00Z,29.2533,-90.6633,1.795,5.97,1111122 
LUMCON,ioos:station:LUMCON:101:1,2019-03-07T11:00:00Z,29.2533,-90.6633,1.791,5.68,1111122 
LUMCON,ioos:station:LUMCON:101:1,2019-03-07T11:15:00Z,29.2533,-90.6633,1.774,5.56,1111122 
LUMCON,ioos:station:LUMCON:101:1,2019-03-07T11:30:00Z,29.2533,-90.6633,1.762,5.45,1111122 
LUMCON,ioos:station:LUMCON:101:1,2019-03-07T11:45:00Z,29.2533,-90.6633,1.753,5.2,1111122 
LUMCON,ioos:station:LUMCON:101:1,2019-03-07T12:00:00Z,29.2533,-90.6633,1.743,4.89,1111122 
LUMCON,ioos:station:LUMCON:101:1,2019-03-07T12:15:00Z,29.2533,-90.6633,1.724,4.59,1111122 
LUMCON,ioos:station:LUMCON:101:1,2019-03-07T12:30:00Z,29.2533,-90.6633,1.717,4.31,1111122 
LUMCON,ioos:station:LUMCON:101:1,2019-03-07T12:45:00Z,29.2533,-90.6633,1.711,4.12,1111122 
LUMCON,ioos:station:LUMCON:101:1,2019-03-07T13:00:00Z,29.2533,-90.6633,1.697,3.91,1111122 
LUMCON,ioos:station:LUMCON:101:1,2019-03-07T13:15:00Z,29.2533,-90.6633,1.69,3.8,1111122 
LUMCON,ioos:station:LUMCON:101:1,2019-03-07T13:30:00Z,29.2533,-90.6633,1.685,3.74,1111122 
LUMCON,ioos:station:LUMCON:101:1,2019-03-07T13:45:00Z,29.2533,-90.6633,1.679,3.7,1111122 
LUMCON,ioos:station:LUMCON:101:1,2019-03-07T14:00:00Z,29.2533,-90.6633,1.682,3.66,1111122 
LUMCON,ioos:station:LUMCON:101:1,2019-03-07T14:15:00Z,29.2533,-90.6633,1.687,3.66,1111122 
LUMCON,ioos:station:LUMCON:101:1,2019-03-07T14:30:00Z,29.2533,-90.6633,1.689,3.66,1111122 
LUMCON,ioos:station:LUMCON:101:1,2019-03-07T14:45:00Z,29.2533,-90.6633,1.686,3.66,1111122 
LUMCON,ioos:station:LUMCON:101:1,2019-03-07T15:00:00Z,29.2533,-90.6633,1.687,3.66,1111122 
LUMCON,ioos:station:LUMCON:101:1,2019-03-07T15:15:00Z,29.2533,-90.6633,1.682,3.66,1111122 
LUMCON,ioos:station:LUMCON:101:1,2019-03-07T15:30:00Z,29.2533,-90.6633,1.677,3.66,1111122 
LUMCON,ioos:station:LUMCON:101:1,2019-03-07T15:45:00Z,29.2533,-90.6633,1.689,3.83,1111122 
LUMCON,ioos:station:LUMCON:101:1,2019-03-07T16:00:00Z,29.2533,-90.6633,1.695,6.34,1111122 
LUMCON,ioos:station:LUMCON:101:1,2019-03-07T16:15:00Z,29.2533,-90.6633,1.693,6.28,1111122 
LUMCON,ioos:station:LUMCON:101:1,2019-03-07T16:30:00Z,29.2533,-90.6633,1.696,6.31,1111122 
LUMCON,ioos:station:LUMCON:101:1,2019-03-07T16:45:00Z,29.2533,-90.6633,1.696,6.13,1111122 
LUMCON,ioos:station:LUMCON:101:1,2019-03-07T17:00:00Z,29.2533,-90.6633,1.691,6.16,1111122 
LUMCON,ioos:station:LUMCON:101:1,2019-03-07T17:15:00Z,29.2533,-90.6633,1.703,5.75,1111122 
LUMCON,ioos:station:LUMCON:101:1,2019-03-07T17:30:00Z,29.2533,-90.6633,1.713,5.64,1111122 
LUMCON,ioos:station:LUMCON:101:1,2019-03-07T17:45:00Z,29.2533,-90.6633,1.718,5.77,1111122 
LUMCON,ioos:station:LUMCON:101:1,2019-03-07T18:00:00Z,29.2533,-90.6633,1.73,5.7,1111122 
LUMCON,ioos:station:LUMCON:101:1,2019-03-07T18:15:00Z,29.2533,-90.6633,1.734,5.63,1111122 
LUMCON,ioos:station:LUMCON:101:1,2019-03-07T18:30:00Z,29.2533,-90.6633,1.734,5.78,1111122 
LUMCON,ioos:station:LUMCON:101:1,2019-03-07T18:45:00Z,29.2533,-90.6633,1.738,5.68,1111122 
LUMCON,ioos:station:LUMCON:101:1,2019-03-07T19:00:00Z,29.2533,-90.6633,1.745,5.78,1111122 
LUMCON,ioos:station:LUMCON:101:1,2019-03-07T19:15:00Z,29.2533,-90.6633,1.754,5.83,1111122 
LUMCON,ioos:station:LUMCON:101:1,2019-03-07T19:30:00Z,29.2533,-90.6633,1.763,6.1,1111122 
LUMCON,ioos:station:LUMCON:101:1,2019-03-07T19:45:00Z,29.2533,-90.6633,1.772,6.21,1111122 
LUMCON,ioos:station:LUMCON:101:1,2019-03-07T20:00:00Z,29.2533,-90.6633,1.778,6.25,1111122 
LUMCON,ioos:station:LUMCON:101:1,2019-03-07T20:15:00Z,29.2533,-90.6633,1.781,6.32,1111122 
LUMCON,ioos:station:LUMCON:101:1,2019-03-07T20:30:00Z,29.2533,-90.6633,1.778,6.32,1111122 
LUMCON,ioos:station:LUMCON:101:1,2019-03-07T20:45:00Z,29.2533,-90.6633,1.772,6.37,1111122 
LUMCON,ioos:station:LUMCON:101:1,2019-03-07T21:00:00Z,29.2533,-90.6633,1.776,6.36,1111122 
LUMCON,ioos:station:LUMCON:101:1,2019-03-07T21:15:00Z,29.2533,-90.6633,1.781,6.33,1111122 
LUMCON,ioos:station:LUMCON:101:1,2019-03-07T21:30:00Z,29.2533,-90.6633,1.788,6.35,1111122 
LUMCON,ioos:station:LUMCON:101:1,2019-03-07T21:45:00Z,29.2533,-90.6633,1.794,6.41,1111122 
LUMCON,ioos:station:LUMCON:101:1,2019-03-07T22:00:00Z,29.2533,-90.6633,1.794,6.47,1111122 
LUMCON,ioos:station:LUMCON:101:1,2019-03-07T22:15:00Z,29.2533,-90.6633,1.785,6.48,1111122 
LUMCON,ioos:station:LUMCON:101:1,2019-03-07T22:30:00Z,29.2533,-90.6633,1.788,6.47,1111122 
LUMCON,ioos:station:LUMCON:101:1,2019-03-07T22:45:00Z,29.2533,-90.6633,1.798,6.46,1111122 
LUMCON,ioos:station:LUMCON:101:1,2019-03-07T23:00:00Z,29.2533,-90.6633,1.803,6.54,1111122 
LUMCON,ioos:station:LUMCON:101:1,2019-03-07T23:15:00Z,29.2533,-90.6633,1.794,6.56,1111122 
LUMCON,ioos:station:LUMCON:101:1,2019-03-07T23:30:00Z,29.2533,-90.6633,1.784,6.58,1111122 
LUMCON,ioos:station:LUMCON:101:1,2019-03-07T23:45:00Z,29.2533,-90.6633,1.782,6.58,1111122 
LUMCON,ioos:station:LUMCON:101:1,2019-03-08T00:00:00Z,29.2533,-90.6633,1.782,6.56,1111122 
LUMCON,ioos:station:LUMCON:101:1,2019-03-08T00:15:00Z,29.2533,-90.6633,1.793,6.57,1111122 
LUMCON,ioos:station:LUMCON:101:1,2019-03-08T00:30:00Z,29.2533,-90.6633,1.804,6.56,1111122 
LUMCON,ioos:station:LUMCON:101:1,2019-03-08T00:45:00Z,29.2533,-90.6633,1.802,6.59,1111122 
LUMCON,ioos:station:LUMCON:101:1,2019-03-08T01:00:00Z,29.2533,-90.6633,1.796,6.55,1111122 
LUMCON,ioos:station:LUMCON:101:1,2019-03-08T01:15:00Z,29.2533,-90.6633,1.794,6.66,1111122 
LUMCON,ioos:station:LUMCON:101:1,2019-03-08T01:30:00Z,29.2533,-90.6633,1.788,6.82,1111122 
LUMCON,ioos:station:LUMCON:101:1,2019-03-08T01:45:00Z,29.2533,-90.6633,1.794,6.92,1111122 
LUMCON,ioos:station:LUMCON:101:1,2019-03-08T02:00:00Z,29.2533,-90.6633,1.791,7.07,1111122 
LUMCON,ioos:station:LUMCON:101:1,2019-03-08T02:15:00Z,29.2533,-90.6633,1.791,7.13,1111122 
LUMCON,ioos:station:LUMCON:101:1,2019-03-08T02:30:00Z,29.2533,-90.6633,1.794,7.03,1111122 